Time,TemperatureF,DewpointF,PressureIn,WindDirection,WindDirectionDegrees,WindSpeedMPH,WindSpeedGustMPH,Humidity,HourlyPrecipIn,Conditions,Clouds,dailyrainin,SoftwareType,DateUTC
2013-09-16 00:14:00,57.0,51.0,30.06,West,267,0.0,0.0,81,0.00,,,0.00,,2013-09-16 04:14:00,
2013-09-16 00:24:00,57.0,51.0,30.06,West,267,0.0,0.0,81,0.00,,,0.00,,2013-09-16 04:24:00,
2013-09-16 00:54:00,57.0,52.0,30.05,West,267,0.0,0.0,84,0.00,,,0.00,,2013-09-16 04:54:00,
2013-09-16 01:22:00,58.0,54.0,30.05,SW,232,0.0,0.0,85,0.00,,,0.00,,2013-09-16 05:22:00,
2013-09-16 01:52:00,58.0,53.0,30.05,SW,232,0.0,0.0,84,0.00,,,0.00,,2013-09-16 05:52:00,
2013-09-16 02:12:00,58.0,53.0,30.04,SW,232,0.0,0.0,84,0.00,,,0.00,,2013-09-16 06:12:00,
2013-09-16 02:22:00,57.0,52.0,30.04,SW,232,0.0,0.0,84,0.00,,,0.00,,2013-09-16 06:22:00,
2013-09-16 02:52:00,57.0,52.0,30.03,SW,232,0.0,0.0,84,0.00,,,0.00,,2013-09-16 06:52:00,
2013-09-16 03:12:00,57.0,52.0,30.03,SW,232,0.0,2.0,84,0.00,,,0.00,,2013-09-16 07:12:00,
2013-09-16 03:22:00,57.0,52.0,30.03,SW,232,0.0,0.0,84,0.00,,,0.00,,2013-09-16 07:22:00,
2013-09-16 03:52:00,57.0,53.0,30.03,SW,232,0.0,0.0,85,0.00,,,0.00,,2013-09-16 07:52:00,
2013-09-16 04:22:00,57.0,53.0,30.02,SW,232,0.0,1.0,85,0.00,,,0.00,,2013-09-16 08:22:00,
2013-09-16 04:52:00,58.0,54.0,30.02,SW,232,0.0,0.0,85,0.00,,,0.00,,2013-09-16 08:52:00,
2013-09-16 05:22:00,58.0,54.0,30.00,SW,232,0.0,0.0,85,0.00,,,0.00,,2013-09-16 09:22:00,
2013-09-16 05:53:00,58.0,54.0,30.01,SW,232,0.0,0.0,86,0.00,,,0.00,,2013-09-16 09:53:00,
2013-09-16 06:23:00,58.0,54.0,30.02,SW,232,0.0,0.0,87,0.00,,,0.00,,2013-09-16 10:23:00,
2013-09-16 06:53:00,58.0,54.0,30.03,SW,232,0.0,0.0,88,0.00,,,0.00,,2013-09-16 10:53:00,
2013-09-16 07:22:00,57.0,53.0,30.02,SW,232,0.0,0.0,88,0.00,,,0.00,,2013-09-16 11:22:00,
2013-09-16 07:52:00,57.0,54.0,30.03,SW,232,0.0,0.0,89,0.00,,,0.00,,2013-09-16 11:52:00,
2013-09-16 08:12:00,57.0,54.0,30.04,SW,232,0.0,0.0,89,0.00,,,0.00,,2013-09-16 12:12:00,
2013-09-16 08:22:00,57.0,54.0,30.04,SW,232,0.0,0.0,89,0.00,,,0.00,,2013-09-16 12:22:00,
2013-09-16 08:52:00,58.0,55.0,30.04,SW,232,0.0,0.0,90,0.00,,,0.00,,2013-09-16 12:52:00,
2013-09-16 09:22:00,58.0,55.0,30.05,SW,232,0.0,0.0,91,0.00,,,0.00,,2013-09-16 13:22:00,
2013-09-16 09:52:00,58.0,55.0,30.06,SW,232,0.0,0.0,91,0.00,,,0.00,,2013-09-16 13:52:00,
2013-09-16 10:11:00,58.0,55.0,30.06,SW,232,0.0,0.0,91,0.00,,,0.00,,2013-09-16 14:11:00,
2013-09-16 10:22:00,58.0,55.0,30.06,SW,232,0.0,0.0,91,0.00,,,0.00,,2013-09-16 14:22:00,
2013-09-16 10:52:00,58.0,55.0,30.06,NE,53,0.0,0.0,91,0.00,,,0.00,,2013-09-16 14:52:00,
2013-09-16 11:22:00,59.0,56.0,30.06,South,170,0.0,1.0,89,0.00,,,0.00,,2013-09-16 15:22:00,
2013-09-16 11:53:00,62.0,55.0,30.06,ESE,117,0.0,2.0,78,0.00,,,0.00,,2013-09-16 15:53:00,
2013-09-16 12:23:00,63.0,55.0,30.05,NNE,32,0.0,3.0,76,0.00,,,0.00,,2013-09-16 16:23:00,
2013-09-16 12:52:00,65.0,53.0,30.05,ESE,107,0.0,5.0,66,0.00,,,0.00,,2013-09-16 16:52:00,
2013-09-16 13:23:00,66.0,53.0,30.04,South,183,0.0,4.0,64,0.00,,,0.00,,2013-09-16 17:23:00,
2013-09-16 13:53:00,67.0,54.0,30.04,ENE,71,0.0,7.0,62,0.00,,,0.00,,2013-09-16 17:53:00,
2013-09-16 14:12:00,67.0,53.0,30.04,ENE,76,1.0,4.0,61,0.00,,,0.00,,2013-09-16 18:12:00,
2013-09-16 14:22:00,67.0,53.0,30.04,ESE,121,1.0,5.0,60,0.00,,,0.00,,2013-09-16 18:22:00,
2013-09-16 14:52:00,67.0,53.0,30.05,NE,52,0.0,4.0,61,0.00,,,0.00,,2013-09-16 18:52:00,
2013-09-16 15:11:00,66.0,52.0,30.04,SSW,204,0.0,3.0,61,0.00,,,0.00,,2013-09-16 19:11:00,
2013-09-16 15:22:00,66.0,53.0,30.04,ENE,64,0.0,6.0,62,0.00,,,0.00,,2013-09-16 19:22:00,
2013-09-16 15:53:00,66.0,53.0,30.04,East,79,0.0,3.0,62,0.00,,,0.00,,2013-09-16 19:53:00,
2013-09-16 16:22:00,66.0,54.0,30.04,ENE,66,0.0,3.0,65,0.00,,,0.00,,2013-09-16 20:22:00,
2013-09-16 16:43:00,65.0,53.0,30.05,ENE,77,0.0,0.0,64,0.00,,,0.00,,2013-09-16 20:43:00,
2013-09-16 16:52:00,65.0,53.0,30.05,ENE,77,0.0,0.0,65,0.00,,,0.00,,2013-09-16 20:52:00,
2013-09-16 17:22:00,64.0,53.0,30.06,ENE,77,0.0,0.0,67,0.00,,,0.00,,2013-09-16 21:22:00,
2013-09-16 17:55:00,64.0,54.0,30.06,East,83,0.0,0.0,69,0.00,,,0.00,,2013-09-16 21:55:00,
2013-09-16 18:24:00,63.0,53.0,30.07,East,87,0.0,0.0,70,0.00,,,0.00,,2013-09-16 22:24:00,
2013-09-16 18:53:00,63.0,53.0,30.08,East,87,0.0,0.0,71,0.00,,,0.00,,2013-09-16 22:53:00,
2013-09-16 19:22:00,62.0,53.0,30.09,East,79,0.0,1.0,72,0.00,,,0.00,,2013-09-16 23:22:00,
2013-09-16 19:52:00,62.0,54.0,30.09,East,79,0.0,0.0,74,0.00,,,0.00,,2013-09-16 23:52:00,
2013-09-16 20:22:00,61.0,53.0,30.11,East,79,0.0,0.0,75,0.00,,,0.00,,2013-09-17 00:22:00,
2013-09-16 20:42:00,60.0,53.0,30.11,East,79,0.0,0.0,77,0.00,,,0.00,,2013-09-17 00:42:00,
2013-09-16 20:52:00,60.0,53.0,30.12,East,79,0.0,0.0,77,0.00,,,0.00,,2013-09-17 00:52:00,
2013-09-16 21:11:00,59.0,52.0,30.13,East,79,0.0,0.0,78,0.00,,,0.00,,2013-09-17 01:11:00,
2013-09-16 21:21:00,59.0,52.0,30.14,SE,140,0.0,2.0,78,0.00,,,0.00,,2013-09-17 01:21:00,
2013-09-16 21:42:00,58.0,51.0,30.15,North,5,1.0,4.0,78,0.00,,,0.00,,2013-09-17 01:42:00,
2013-09-16 21:52:00,58.0,51.0,30.15,NE,53,1.0,5.0,78,0.00,,,0.00,,2013-09-17 01:52:00,
2013-09-16 22:12:00,57.0,50.0,30.16,ENE,61,0.0,3.0,77,0.00,,,0.00,,2013-09-17 02:12:00,
2013-09-16 22:22:00,57.0,50.0,30.17,NE,50,1.0,5.0,76,0.00,,,0.00,,2013-09-17 02:22:00,
2013-09-16 22:42:00,56.0,48.0,30.18,NE,36,0.0,3.0,74,0.00,,,0.00,,2013-09-17 02:42:00,
2013-09-16 22:52:00,56.0,48.0,30.18,NE,44,1.0,4.0,75,0.00,,,0.00,,2013-09-17 02:52:00,
2013-09-16 23:23:00,55.0,47.0,30.20,NE,47,1.0,8.0,73,0.00,,,0.00,,2013-09-17 03:23:00,
2013-09-16 23:54:00,54.0,46.0,30.22,North,350,0.0,4.0,74,0.00,,,0.00,,2013-09-17 03:54:00,